EW4462 Weather Reports


Display with metric or nautical units.
time (UTC)temp
F
wind
direction
speed
MPH
gust
MPH
rain 1hr
in
rain 24hr
in
rain mn
in
humidity
%
barometer
mb
20260504002824 66 109 0.0 0.0 0.00 0.00 0.00 64 1014.1
20260504001805 66 96 0.0 0.0 0.00 0.00 0.00 64 1014.1
20260504000751 66 57 0.0 0.0 0.00 0.00 0.00 62 1014.0
20260503234550 69 112 0.0 0.0 0.00 0.00 0.00 56 1013.8
20260503232421 71 91 0.0 0.0 0.00 0.00 0.00 53 1013.7
20260503231415 71 103 0.0 0.0 0.00 0.00 0.00 52 1013.7
20260503230413 70 151 0.0 1.0 0.00 0.00 0.00 54 1014.1
20260503225354 71 113 0.0 0.0 0.00 0.00 0.00 52 1014.2
20260503224327 72 96 0.0 0.0 0.00 0.00 0.00 52 1014.3
20260503223251 72 82 0.0 0.0 0.00 0.00 0.00 52 1014.2
20260503221127 72 86 0.0 0.0 0.00 0.00 0.00 53 1014.3
20260503220127 71 101 0.0 3.0 0.00 0.00 0.00 53 1014.3
20260503215107 71 111 0.0 0.0 0.00 0.00 0.00 53 1014.6
20260503214121 71 98 0.0 0.0 0.00 0.00 0.00 56 1014.7
20260503211940 70 129 0.0 3.0 0.00 0.00 0.00 57 1014.9
20260503205832 69 205 0.0 2.0 0.00 0.00 0.00 63 1015.0
20260503204810 68 145 0.0 1.0 0.00 0.00 0.00 63 1015.1
20260503203750 68 167 0.0 0.0 0.00 0.00 0.00 63 1015.2
20260503201616 67 89 0.0 0.0 0.00 0.00 0.00 65 1015.2
20260503200606 67 126 0.0 0.0 0.00 0.00 0.00 64 1015.4
20260503195546 68 113 0.0 0.0 0.00 0.00 0.00 64 1015.4
20260503194547 68 96 0.0 0.0 0.00 0.00 0.00 64 1015.4
20260503193528 68 97 0.0 2.0 0.00 0.00 0.00 62 1015.4
20260503192500 68 54 0.0 2.0 0.00 0.00 0.00 63 1015.4
20260503191513 68 129 0.0 1.0 0.00 0.00 0.00 65 1015.5
20260503185343 66 114 0.0 0.0 0.00 0.00 0.00 68 1015.5
20260503184336 66 103 0.0 0.0 0.00 0.00 0.00 67 1015.6
20260503183329 66 115 0.0 0.0 0.00 0.00 0.00 68 1015.6
20260503182339 66 88 0.0 1.0 0.00 0.00 0.00 69 1015.6
20260503181330 66 102 0.0 0.0 0.00 0.00 0.00 71 1015.5
20260503180320 66 136 0.0 0.0 0.00 0.00 0.00 71 1015.5
20260503175323 66 81 0.0 1.0 0.00 0.00 0.00 72 1015.4
20260503174306 67 86 0.0 0.0 0.00 0.00 0.00 71 1015.5
20260503173259 67 109 0.0 0.0 0.00 0.00 0.00 70 1015.4
20260503171216 66 91 0.0 0.0 0.00 0.00 0.00 71 1015.2
20260503170232 66 109 0.0 0.0 0.00 0.00 0.00 73 1015.3
20260503130828 60 149 0.0 0.0 0.00 0.00 0.00 86 1014.2
20260503110618 61 124 0.0 0.0 0.00 0.00 0.00 86 1013.6
20260503080853 61 94 0.0 0.0 0.00 0.00 0.00 86 1014.4
20260503072730 62 94 0.0 0.0 0.00 0.00 0.00 86 1014.8
20260503071730 62 94 0.0 0.0 0.00 0.00 0.00 86 1014.8
20260503070700 62 96 0.0 0.0 0.00 0.00 0.00 86 1014.6
20260503054611 62 100 0.0 0.0 0.00 0.00 0.00 86 1014.5
20260503053630 62 100 0.0 0.0 0.00 0.00 0.00 86 1014.4
20260503052615 62 100 0.0 0.0 0.00 0.00 0.00 86 1014.3
20260503051554 62 100 0.0 0.0 0.00 0.00 0.00 85 1014.2
20260503045417 62 100 0.0 0.0 0.00 0.00 0.00 85 1013.6
20260503043212 62 100 0.0 0.0 0.00 0.00 0.00 85 1013.5
20260503042203 62 100 0.0 0.0 0.00 0.00 0.00 85 1013.0
20260503041147 62 100 0.0 0.0 0.00 0.00 0.00 85 1012.9
20260503040154 62 100 0.0 0.0 0.00 0.00 0.00 84 1012.8
20260503033959 62 100 0.0 0.0 0.00 0.00 0.00 84 1012.9
20260503032925 62 101 0.0 0.0 0.00 0.00 0.00 84 1012.7
20260503031914 62 101 0.0 0.0 0.00 0.00 0.00 84 1012.6
20260503025812 62 98 0.0 0.0 0.00 0.00 0.00 84 1012.4
20260503021421 63 119 0.0 0.0 0.00 0.00 0.00 83 1012.3
20260503020442 63 89 0.0 0.0 0.00 0.00 0.00 82 1012.3
20260503015458 63 83 0.0 0.0 0.00 0.00 0.00 82 1012.3
20260503014432 64 122 0.0 0.0 0.00 0.00 0.00 81 1012.3
20260503013405 64 98 0.0 3.0 0.00 0.00 0.00 81 1012.4
20260503012341 64 92 0.0 0.0 0.00 0.00 0.00 81 1012.1
20260503011402 64 121 0.0 0.0 0.00 0.00 0.00 81 1012.1
20260503010337 64 122 0.0 0.0 0.00 0.00 0.00 81 1012.1
20260503005315 64 144 0.0 0.0 0.00 0.00 0.00 81 1012.2